Naples, Italy

1:49 PM CEST on March 28, 2017 (GMT +0200)
Naples

Weather History for LIRN - October, 2012

Change the Weather History Date:

Friday, October 5, 2012

  Actual Average Record
Temperature  
Mean Temperature 70 °F -  
Max Temperature 78 °F 70 °F 80 °F (2007)
Min Temperature 62 °F 52 °F 44 °F (2008)
Cooling Degree Days 5    
Growing Degree Days 20 (Base 50)    
Moisture  
Dew Point 61 °F    
Average Humidity 75    
Maximum Humidity 94    
Minimum Humidity 54    
Precipitation  
Precipitation 0.00 in 0.18 in - ()
Sea Level Pressure  
Sea Level Pressure 30.11 in    
Wind  
Wind Speed 3 mph ()    
Max Wind Speed 9 mph    
Max Gust Speed -    
Visibility 5.7 miles    
Events      
Averages and records for this station are not official NWS values.
T = Trace of Precipitation, MM = Missing Value Source: Averaged Metar Reports

Daily Weather History Graph

Daily Weather History Graph

Search for Another Location

Airport or City:

Trip Planner

Search our weather history database for the weather conditions in past years. The results will help you decide how hot, cold, wet, or windy it might be!

Date:

Astronomy

Oct. 05, 2012 Rise Set
Actual Time 7:03 AM CEST 6:37 PM CEST
Civil Twilight 6:36 AM CEST 7:05 PM CEST
Nautical Twilight 6:04 AM CEST 7:36 PM CEST
Astronomical Twilight 5:32 AM CEST 8:08 PM CEST
Moon 9:45 PM CEST (10/5) 11:59 AM CEST (10/5)
Length of Visible Light 12h 28m
Length of Day
11h 34m
Waning Gibbous, 76% of the Moon is Illuminated
Oct 5
Waning Gibbous
Oct 8
Last Quarter
Oct 15
New
Oct 22
First Quarter
Oct 29
Full

Hourly Weather History & Observations

Time (CEST) Temp. Dew Point Humidity Pressure Visibility Wind Dir Wind Speed Gust Speed Precip Events Conditions
12:20 AM 68.0 °F 62.6 °F 83% 30.09 in 6.2 mi South 2.3 mph - N/A   Scattered Clouds
12:50 AM 68.0 °F 62.6 °F 83% 30.09 in 6.2 mi Variable 1.2 mph - N/A   Scattered Clouds
1:20 AM 68.0 °F 62.6 °F 83% 30.09 in 6.2 mi Variable 1.2 mph - N/A   Scattered Clouds
1:50 AM 66.2 °F 60.8 °F 83% 30.09 in 6.2 mi ENE 3.5 mph - N/A   Scattered Clouds
2:20 AM 66.2 °F 60.8 °F 83% 30.09 in 6.2 mi Variable 2.3 mph - N/A   Scattered Clouds
2:50 AM 66.2 °F 60.8 °F 83% 30.09 in 6.2 mi Variable 1.2 mph - N/A   Scattered Clouds
3:20 AM 64.4 °F 59.0 °F 83% 30.06 in 6.2 mi Variable 1.2 mph - N/A   Scattered Clouds
3:50 AM 62.6 °F 60.8 °F 94% 30.09 in 5.0 mi NNE 3.5 mph - N/A   Partly Cloudy
4:20 AM 62.6 °F 59.0 °F 88% 30.09 in 5.0 mi North 2.3 mph - N/A   Partly Cloudy
4:50 AM 62.6 °F 59.0 °F 88% 30.09 in 5.0 mi NW 2.3 mph - N/A   Partly Cloudy
5:20 AM 62.6 °F 59.0 °F 88% 30.09 in 5.0 mi Calm Calm - N/A   Partly Cloudy
5:50 AM 62.6 °F 59.0 °F 88% 30.09 in 5.0 mi Variable 1.2 mph - N/A   Scattered Clouds
6:20 AM 62.6 °F 60.8 °F 94% 30.09 in 5.0 mi NNE 3.5 mph - N/A   Scattered Clouds
6:50 AM 62.6 °F 59.0 °F 88% 30.09 in 4.3 mi North 4.6 mph - N/A   Partly Cloudy
7:20 AM 64.4 °F 59.0 °F 83% 30.09 in 5.0 mi NNE 3.5 mph - N/A   Unknown
7:50 AM 64.4 °F 59.0 °F 83% 30.12 in - Variable 2.3 mph - N/A   Clear
8:20 AM 66.2 °F 60.8 °F 83% 30.12 in - North 3.5 mph - N/A   Clear
8:50 AM 66.2 °F 60.8 °F 83% 30.12 in - NNE 4.6 mph - N/A   Clear
9:20 AM 68.0 °F 59.0 °F 73% 30.12 in - NNE 3.5 mph - N/A   Clear
9:50 AM 69.8 °F 60.8 °F 73% 30.15 in - Variable 2.3 mph - N/A   Clear
10:20 AM 71.6 °F 62.6 °F 73% 30.15 in - North 4.6 mph - N/A   Clear
10:50 AM 73.4 °F 62.6 °F 69% 30.15 in - NE 3.5 mph - N/A   Clear
11:20 AM 75.2 °F 62.6 °F 65% 30.15 in - Variable 3.5 mph - N/A   Clear
11:50 AM 75.2 °F 60.8 °F 61% 30.15 in 6.2 mi Variable 5.8 mph - N/A   Partly Cloudy
12:50 PM 78.8 °F 60.8 °F 54% 30.15 in 6.2 mi Variable 3.5 mph - N/A   Partly Cloudy
1:20 PM 78.8 °F 64.4 °F 61% 30.12 in 6.2 mi South 6.9 mph - N/A   Partly Cloudy
1:50 PM 78.8 °F 64.4 °F 61% 30.12 in 6.2 mi South 8.1 mph - N/A   Scattered Clouds
2:20 PM 77.0 °F 64.4 °F 65% 30.12 in 6.2 mi South 8.1 mph - N/A   Scattered Clouds
3:20 PM 78.8 °F 62.6 °F 57% 30.12 in 6.2 mi South 6.9 mph - N/A   Partly Cloudy
3:50 PM 78.8 °F 62.6 °F 57% 30.09 in 6.2 mi Variable 3.5 mph - N/A   Partly Cloudy
4:20 PM 78.8 °F 60.8 °F 54% 30.12 in - WSW 3.5 mph - N/A   Clear
4:50 PM 77.0 °F 60.8 °F 57% 30.09 in - WNW 6.9 mph - N/A   Clear
5:20 PM 77.0 °F 60.8 °F 57% 30.12 in - WNW 8.1 mph - N/A   Clear
5:50 PM 75.2 °F 60.8 °F 61% 30.09 in - WNW 8.1 mph - N/A   Clear
6:20 PM 73.4 °F 60.8 °F 65% 30.12 in - WNW 6.9 mph - N/A   Clear
6:50 PM 71.6 °F 60.8 °F 69% 30.12 in - WNW 9.2 mph - N/A   Clear
7:20 PM 71.6 °F 62.6 °F 73% 30.12 in - WNW 5.8 mph - N/A   Clear
7:50 PM 71.6 °F 62.6 °F 73% 30.12 in - WNW 6.9 mph - N/A   Clear
8:20 PM 71.6 °F 62.6 °F 73% 30.12 in - NW 4.6 mph - N/A   Clear
8:50 PM 69.8 °F 62.6 °F 78% 30.12 in - Calm Calm - N/A   Clear
9:20 PM 69.8 °F 62.6 °F 78% 30.12 in - NE 3.5 mph - N/A   Clear
9:50 PM 69.8 °F 62.6 °F 78% 30.12 in - East 2.3 mph - N/A   Clear
10:20 PM 68.0 °F 62.6 °F 83% 30.15 in - NE 1.2 mph - N/A   Clear
10:50 PM 68.0 °F 62.6 °F 83% 30.15 in - Variable 1.2 mph - N/A   Clear
11:20 PM 66.2 °F 60.8 °F 83% 30.15 in - Calm Calm - N/A   Clear
11:50 PM 66.2 °F 60.8 °F 83% 30.15 in - Calm Calm - N/A   Clear